Aeroporto :
LOGIN :

Iscrizione | Disclaimer

   EN    FR    IT 

 










Sommario :    VFR   VFR Marginale   IFR   IFR Intensivo   IFR Molto Intensivo
Visibilità : 
Base nubi : 
>= 8 km
>= 3000ft
5 / 8 km
1000 / 3000 ft
1500m / 5 km
500 / 1000 ft
800 / 1500m
200 / 500 ft
< 800m
< 200 ft
Simboli :   Temporali  Nebbia  Neve Forte  Precipitazioni Forti  Vento > 20 kt
SIGMETs :   Varie  Temporali  Ghiacco  Turbolenza  Onda orograficha  Ceneri Vulcaniche






- Altitudine del aeroporto : 659 ft
- Codice IATA : LGG


EBLG - Liège

ULTIMO METAR :
  • 181020Z 17005KT 140V220 CAVOK 29/15 Q1013 NOSIG

METARs OBSOLETI :
  • 180950Z 16004KT 090V210 CAVOK 29/15 Q1013 NOSIG
  • 180920Z 10004KT 070V130 CAVOK 28/17 Q1013 NOSIG
  • 180850Z 12005KT CAVOK 27/17 Q1013 NOSIG
  • 180820Z VRB04KT CAVOK 26/18 Q1013 NOSIG

TAF TAF EBLG
Valido dal 18 a 06 ore il 19 a 12 ore UTC


180510Z 1806/1912 18011KT CAVOK
PROB30
TEMPO 1812/1819 VRB15G25KT 4500 SHRA TSRA
BECMG 1902/1904 18007KT



MetMap, La meteo Aeronautica in un colpo d'occhio ! - Copyright ORBIFLY Dicembre 2007 - Disclaimer

ORBIFLY MET'MAP TEAM :

Programmazione e sviluppo : Alexandra Zaïnal
Concezione : Baudouin d'Aumeries
Aiuto per la programmazione : Marc-Olivier Méhu
Supporto tecnico e logistico : Manuel Goepfert
Aiuto per la traduzione : Arnaldo La Scala

Contatto : metmap@orbifly.com




FONTI E CREDITI :

   NOAA